Time,TemperatureF,DewpointF,PressureIn,WindDirection,WindDirectionDegrees,WindSpeedMPH,WindSpeedGustMPH,Humidity,HourlyPrecipIn,Conditions,Clouds,dailyrainin,SoftwareType,DateUTC
2013-02-07 00:02:00,29.0,22.0,30.23,NW,305,1.0,-999.0,75,-99.99,,,-99.99,,2013-02-07 05:02:00,
2013-02-07 00:11:00,29.0,22.0,30.23,NW,305,1.0,-999.0,75,-99.99,,,-99.99,,2013-02-07 05:11:00,
2013-02-07 00:21:00,30.0,23.0,30.22,North,350,1.0,-999.0,75,-99.99,,,-99.99,,2013-02-07 05:21:00,
2013-02-07 00:32:00,30.0,23.0,30.22,NW,307,1.0,-999.0,76,-99.99,,,-99.99,,2013-02-07 05:32:00,
2013-02-07 00:42:00,30.0,23.0,30.22,NW,307,1.0,-999.0,76,-99.99,,,-99.99,,2013-02-07 05:42:00,
2013-02-07 00:52:00,30.0,23.0,30.23,WSW,245,1.0,-999.0,76,-99.99,,,-99.99,,2013-02-07 05:52:00,
2013-02-07 01:02:00,30.0,24.0,30.23,West,277,1.0,-999.0,77,-99.99,,,-99.99,,2013-02-07 06:02:00,
2013-02-07 01:11:00,30.0,24.0,30.23,West,277,1.0,-999.0,77,-99.99,,,-99.99,,2013-02-07 06:11:00,
2013-02-07 01:22:00,30.0,24.0,30.21,NNE,32,1.0,-999.0,77,-99.99,,,-99.99,,2013-02-07 06:22:00,
2013-02-07 01:32:00,30.0,24.0,30.21,WNW,287,1.0,-999.0,77,-99.99,,,-99.99,,2013-02-07 06:32:00,
2013-02-07 01:43:00,30.0,24.0,30.21,WNW,287,1.0,-999.0,77,-99.99,,,-99.99,,2013-02-07 06:43:00,
2013-02-07 01:52:00,30.0,24.0,30.21,SSW,210,1.0,-999.0,77,-99.99,,,-99.99,,2013-02-07 06:52:00,
2013-02-07 02:01:00,31.0,25.0,30.21,WSW,243,1.0,-999.0,77,-99.99,,,-99.99,,2013-02-07 07:01:00,
2013-02-07 02:11:00,30.0,24.0,30.21,NNW,344,0.0,-999.0,77,-99.99,,,-99.99,,2013-02-07 07:11:00,
2013-02-07 02:22:00,30.0,24.0,30.21,NNW,344,0.0,-999.0,77,-99.99,,,-99.99,,2013-02-07 07:22:00,
2013-02-07 02:32:00,30.0,24.0,30.21,NE,46,1.0,-999.0,78,-99.99,,,-99.99,,2013-02-07 07:32:00,
2013-02-07 02:42:00,30.0,24.0,30.21,NE,46,1.0,-999.0,78,-99.99,,,-99.99,,2013-02-07 07:42:00,
2013-02-07 02:52:00,30.0,24.0,30.20,WSW,254,0.0,-999.0,78,-99.99,,,-99.99,,2013-02-07 07:52:00,
2013-02-07 03:01:00,29.0,23.0,30.20,WSW,254,0.0,-999.0,79,-99.99,,,-99.99,,2013-02-07 08:01:00,
2013-02-07 03:11:00,29.0,23.0,30.20,WSW,254,0.0,-999.0,79,-99.99,,,-99.99,,2013-02-07 08:11:00,
2013-02-07 03:21:00,29.0,23.0,30.21,North,4,0.0,-999.0,79,-99.99,,,-99.99,,2013-02-07 08:21:00,
2013-02-07 03:32:00,28.0,22.0,30.21,North,4,0.0,-999.0,79,-99.99,,,-99.99,,2013-02-07 08:32:00,
2013-02-07 03:42:00,28.0,22.0,30.21,North,4,0.0,-999.0,79,-99.99,,,-99.99,,2013-02-07 08:42:00,
2013-02-07 03:52:00,28.0,23.0,30.21,North,4,0.0,-999.0,80,-99.99,,,-99.99,,2013-02-07 08:52:00,
2013-02-07 04:02:00,27.0,22.0,30.21,North,4,0.0,-999.0,81,-99.99,,,-99.99,,2013-02-07 09:02:00,
2013-02-07 04:11:00,27.0,22.0,30.21,North,4,0.0,-999.0,81,-99.99,,,-99.99,,2013-02-07 09:11:00,
2013-02-07 04:21:00,27.0,22.0,30.20,NNW,343,0.0,-999.0,82,-99.99,,,-99.99,,2013-02-07 09:21:00,
2013-02-07 04:31:00,27.0,22.0,30.20,NNW,343,0.0,-999.0,82,-99.99,,,-99.99,,2013-02-07 09:31:00,
2013-02-07 04:41:00,27.0,22.0,30.20,NNW,343,0.0,-999.0,82,-99.99,,,-99.99,,2013-02-07 09:41:00,
2013-02-07 04:52:00,27.0,22.0,30.19,NW,306,0.0,-999.0,82,-99.99,,,-99.99,,2013-02-07 09:52:00,
2013-02-07 05:01:00,27.0,23.0,30.19,NW,306,0.0,-999.0,83,-99.99,,,-99.99,,2013-02-07 10:01:00,
2013-02-07 05:11:00,27.0,23.0,30.19,NW,306,0.0,-999.0,83,-99.99,,,-99.99,,2013-02-07 10:11:00,
2013-02-07 05:22:00,27.0,22.0,30.19,WNW,290,0.0,-999.0,82,-99.99,,,-99.99,,2013-02-07 10:22:00,
2013-02-07 05:32:00,27.0,22.0,30.19,WSW,254,0.0,-999.0,82,-99.99,,,-99.99,,2013-02-07 10:32:00,
2013-02-07 05:42:00,27.0,22.0,30.19,WSW,254,0.0,-999.0,82,-99.99,,,-99.99,,2013-02-07 10:42:00,
2013-02-07 05:52:00,27.0,22.0,30.19,WNW,294,0.0,-999.0,82,-99.99,,,-99.99,,2013-02-07 10:52:00,
2013-02-07 06:01:00,27.0,22.0,30.19,NW,316,1.0,-999.0,82,-99.99,,,-99.99,,2013-02-07 11:01:00,
2013-02-07 06:11:00,27.0,22.0,30.19,NW,316,1.0,-999.0,82,-99.99,,,-99.99,,2013-02-07 11:11:00,
2013-02-07 06:22:00,27.0,22.0,30.19,SW,233,0.0,-999.0,81,-99.99,,,-99.99,,2013-02-07 11:22:00,
2013-02-07 06:32:00,27.0,22.0,30.19,SW,234,0.0,-999.0,81,-99.99,,,-99.99,,2013-02-07 11:32:00,
2013-02-07 06:44:00,27.0,22.0,30.19,SW,234,0.0,-999.0,81,-99.99,,,-99.99,,2013-02-07 11:44:00,
2013-02-07 06:52:00,27.0,22.0,30.19,NW,305,1.0,-999.0,80,-99.99,,,-99.99,,2013-02-07 11:52:00,
2013-02-07 07:02:00,27.0,22.0,30.19,North,354,1.0,-999.0,80,-99.99,,,-99.99,,2013-02-07 12:02:00,
2013-02-07 07:11:00,27.0,22.0,30.19,North,354,1.0,-999.0,80,-99.99,,,-99.99,,2013-02-07 12:11:00,
2013-02-07 07:22:00,27.0,22.0,30.20,NW,306,1.0,-999.0,80,-99.99,,,-99.99,,2013-02-07 12:22:00,
2013-02-07 07:32:00,27.0,22.0,30.20,WSW,241,1.0,-999.0,80,-99.99,,,-99.99,,2013-02-07 12:32:00,
2013-02-07 07:42:00,27.0,22.0,30.20,WSW,241,1.0,-999.0,80,-99.99,,,-99.99,,2013-02-07 12:42:00,
2013-02-07 07:53:00,28.0,23.0,30.18,NNW,328,0.0,-999.0,80,-99.99,,,-99.99,,2013-02-07 12:53:00,
2013-02-07 08:02:00,28.0,23.0,30.18,NW,323,1.0,-999.0,80,-99.99,,,-99.99,,2013-02-07 13:02:00,
2013-02-07 08:12:00,28.0,23.0,30.18,NW,323,1.0,-999.0,80,-99.99,,,-99.99,,2013-02-07 13:12:00,
2013-02-07 08:22:00,28.0,23.0,30.17,NW,304,1.0,-999.0,81,-99.99,,,-99.99,,2013-02-07 13:22:00,
2013-02-07 08:32:00,28.0,23.0,30.17,WNW,303,1.0,-999.0,81,-99.99,,,-99.99,,2013-02-07 13:32:00,
2013-02-07 08:42:00,28.0,23.0,30.17,WNW,303,1.0,-999.0,81,-99.99,,,-99.99,,2013-02-07 13:42:00,
2013-02-07 08:52:00,28.0,23.0,30.16,NNW,330,1.0,-999.0,81,-99.99,,,-99.99,,2013-02-07 13:52:00,
2013-02-07 09:01:00,28.0,23.0,30.16,West,276,1.0,-999.0,81,-99.99,,,-99.99,,2013-02-07 14:01:00,
2013-02-07 09:11:00,28.0,23.0,30.16,West,276,1.0,-999.0,81,-99.99,,,-99.99,,2013-02-07 14:11:00,
2013-02-07 09:21:00,29.0,24.0,30.16,WSW,254,0.0,-999.0,80,-99.99,,,-99.99,,2013-02-07 14:21:00,
2013-02-07 09:32:00,29.0,24.0,30.16,West,280,0.0,-999.0,80,-99.99,,,-99.99,,2013-02-07 14:32:00,
2013-02-07 09:42:00,29.0,24.0,30.16,West,280,0.0,-999.0,80,-99.99,,,-99.99,,2013-02-07 14:42:00,
2013-02-07 09:52:00,30.0,24.0,30.15,NNW,333,1.0,-999.0,79,-99.99,,,-99.99,,2013-02-07 14:52:00,
2013-02-07 10:01:00,30.0,24.0,30.15,NNW,333,1.0,-999.0,79,-99.99,,,-99.99,,2013-02-07 15:01:00,
2013-02-07 10:11:00,30.0,24.0,30.15,NNW,333,1.0,-999.0,79,-99.99,,,-99.99,,2013-02-07 15:11:00,
2013-02-07 10:22:00,30.0,24.0,30.14,WNW,290,1.0,-999.0,78,-99.99,,,-99.99,,2013-02-07 15:22:00,
2013-02-07 10:32:00,31.0,25.0,30.14,NNW,330,1.0,-999.0,77,-99.99,,,-99.99,,2013-02-07 15:32:00,
2013-02-07 10:42:00,31.0,25.0,30.14,NNW,330,1.0,-999.0,77,-99.99,,,-99.99,,2013-02-07 15:42:00,
2013-02-07 10:52:00,32.0,25.0,30.12,NNW,344,1.0,-999.0,76,-99.99,,,-99.99,,2013-02-07 15:52:00,
2013-02-07 11:01:00,32.0,25.0,30.12,WSW,252,1.0,-999.0,75,-99.99,,,-99.99,,2013-02-07 16:01:00,
2013-02-07 11:11:00,32.0,25.0,30.12,WSW,252,1.0,-999.0,75,-99.99,,,-99.99,,2013-02-07 16:11:00,
2013-02-07 11:21:00,32.0,25.0,30.11,West,272,1.0,-999.0,75,-99.99,,,-99.99,,2013-02-07 16:21:00,
2013-02-07 11:32:00,32.0,25.0,30.11,North,9,1.0,-999.0,75,-99.99,,,-99.99,,2013-02-07 16:32:00,
2013-02-07 11:41:00,32.0,25.0,30.11,North,9,1.0,-999.0,75,-99.99,,,-99.99,,2013-02-07 16:41:00,
2013-02-07 11:52:00,33.0,26.0,30.10,West,280,1.0,-999.0,75,-99.99,,,-99.99,,2013-02-07 16:52:00,
2013-02-07 12:01:00,34.0,26.0,30.10,North,356,1.0,-999.0,73,-99.99,,,-99.99,,2013-02-07 17:01:00,
2013-02-07 12:11:00,34.0,26.0,30.10,North,356,1.0,-999.0,73,-99.99,,,-99.99,,2013-02-07 17:11:00,
2013-02-07 12:21:00,36.0,27.0,30.09,NW,312,2.0,-999.0,70,-99.99,,,-99.99,,2013-02-07 17:21:00,
2013-02-07 12:31:00,36.0,27.0,30.09,NW,312,2.0,-999.0,70,-99.99,,,-99.99,,2013-02-07 17:31:00,
2013-02-07 12:42:00,36.0,27.0,30.09,NW,312,2.0,-999.0,70,-99.99,,,-99.99,,2013-02-07 17:42:00,
2013-02-07 12:52:00,39.0,28.0,30.07,West,281,2.0,-999.0,65,-99.99,,,-99.99,,2013-02-07 17:52:00,
2013-02-07 13:01:00,40.0,28.0,30.07,NW,313,2.0,-999.0,63,-99.99,,,-99.99,,2013-02-07 18:01:00,
2013-02-07 13:11:00,40.0,28.0,30.07,NW,313,2.0,-999.0,63,-99.99,,,-99.99,,2013-02-07 18:11:00,
2013-02-07 13:23:00,40.0,28.0,30.05,NNW,331,1.0,-999.0,62,-99.99,,,-99.99,,2013-02-07 18:23:00,
2013-02-07 13:31:00,40.0,28.0,30.05,WNW,287,1.0,-999.0,63,-99.99,,,-99.99,,2013-02-07 18:31:00,
2013-02-07 13:42:00,40.0,28.0,30.05,WNW,287,1.0,-999.0,63,-99.99,,,-99.99,,2013-02-07 18:42:00,
2013-02-07 13:52:00,41.0,29.0,30.03,NNW,329,1.0,-999.0,62,-99.99,,,-99.99,,2013-02-07 18:52:00,
2013-02-07 14:01:00,40.0,28.0,30.03,NW,325,2.0,-999.0,62,-99.99,,,-99.99,,2013-02-07 19:01:00,
2013-02-07 14:11:00,40.0,28.0,30.03,NW,325,2.0,-999.0,62,-99.99,,,-99.99,,2013-02-07 19:11:00,
2013-02-07 14:22:00,41.0,29.0,30.01,North,354,1.0,-999.0,61,-99.99,,,-99.99,,2013-02-07 19:22:00,
2013-02-07 14:32:00,41.0,29.0,30.01,WNW,296,1.0,-999.0,61,-99.99,,,-99.99,,2013-02-07 19:32:00,
2013-02-07 14:41:00,41.0,29.0,30.01,WNW,296,1.0,-999.0,61,-99.99,,,-99.99,,2013-02-07 19:41:00,
2013-02-07 14:52:00,41.0,29.0,29.99,WSW,254,1.0,-999.0,62,-99.99,,,-99.99,,2013-02-07 19:52:00,
2013-02-07 15:01:00,41.0,29.0,29.99,NNW,333,1.0,-999.0,62,-99.99,,,-99.99,,2013-02-07 20:01:00,
2013-02-07 15:11:00,41.0,29.0,29.99,NNW,333,1.0,-999.0,62,-99.99,,,-99.99,,2013-02-07 20:11:00,
2013-02-07 15:22:00,41.0,29.0,29.98,WNW,284,1.0,-999.0,61,-99.99,,,-99.99,,2013-02-07 20:22:00,
2013-02-07 15:31:00,41.0,29.0,29.98,NW,310,1.0,-999.0,62,-99.99,,,-99.99,,2013-02-07 20:31:00,
2013-02-07 15:41:00,41.0,29.0,29.98,NW,310,1.0,-999.0,62,-99.99,,,-99.99,,2013-02-07 20:41:00,
2013-02-07 15:52:00,41.0,29.0,29.97,WNW,285,1.0,-999.0,61,-99.99,,,-99.99,,2013-02-07 20:52:00,
2013-02-07 16:01:00,41.0,29.0,29.97,West,273,1.0,-999.0,62,-99.99,,,-99.99,,2013-02-07 21:01:00,
2013-02-07 16:11:00,41.0,29.0,29.97,West,273,1.0,-999.0,62,-99.99,,,-99.99,,2013-02-07 21:11:00,
2013-02-07 16:21:00,40.0,28.0,29.95,North,8,1.0,-999.0,62,-99.99,,,-99.99,,2013-02-07 21:21:00,
2013-02-07 16:31:00,40.0,28.0,29.95,NW,319,1.0,-999.0,63,-99.99,,,-99.99,,2013-02-07 21:31:00,
2013-02-07 16:42:00,40.0,28.0,29.95,NW,319,1.0,-999.0,63,-99.99,,,-99.99,,2013-02-07 21:42:00,
2013-02-07 16:52:00,40.0,28.0,29.94,North,1,0.0,-999.0,63,-99.99,,,-99.99,,2013-02-07 21:52:00,
2013-02-07 17:02:00,40.0,29.0,29.94,NNW,329,1.0,-999.0,64,-99.99,,,-99.99,,2013-02-07 22:02:00,
2013-02-07 17:11:00,40.0,29.0,29.94,NNW,329,1.0,-999.0,64,-99.99,,,-99.99,,2013-02-07 22:11:00,
2013-02-07 17:21:00,40.0,29.0,29.92,NW,325,1.0,-999.0,64,-99.99,,,-99.99,,2013-02-07 22:21:00,
2013-02-07 17:32:00,40.0,29.0,29.92,North,3,1.0,-999.0,65,-99.99,,,-99.99,,2013-02-07 22:32:00,
2013-02-07 17:42:00,40.0,29.0,29.92,North,3,1.0,-999.0,65,-99.99,,,-99.99,,2013-02-07 22:42:00,
2013-02-07 17:52:00,39.0,28.0,29.91,NW,313,2.0,-999.0,65,-99.99,,,-99.99,,2013-02-07 22:52:00,
2013-02-07 18:01:00,39.0,29.0,29.91,West,271,1.0,-999.0,66,-99.99,,,-99.99,,2013-02-07 23:01:00,
2013-02-07 18:11:00,39.0,29.0,29.91,West,271,1.0,-999.0,66,-99.99,,,-99.99,,2013-02-07 23:11:00,
2013-02-07 18:21:00,39.0,29.0,29.90,WNW,300,1.0,-999.0,67,-99.99,,,-99.99,,2013-02-07 23:21:00,
2013-02-07 18:32:00,38.0,29.0,29.89,NNW,340,0.0,-999.0,69,-99.99,,,-99.99,,2013-02-07 23:32:00,
2013-02-07 18:42:00,38.0,29.0,29.89,NNW,340,0.0,-999.0,69,-99.99,,,-99.99,,2013-02-07 23:42:00,
2013-02-07 18:52:00,38.0,29.0,29.88,NNW,329,1.0,-999.0,71,-99.99,,,-99.99,,2013-02-07 23:52:00,
2013-02-07 19:01:00,38.0,29.0,29.88,NE,49,1.0,-999.0,71,-99.99,,,-99.99,,2013-02-08 00:01:00,
2013-02-07 19:11:00,38.0,29.0,29.88,NE,49,1.0,-999.0,71,-99.99,,,-99.99,,2013-02-08 00:11:00,
2013-02-07 19:21:00,37.0,29.0,29.90,SW,215,0.0,-999.0,72,-99.99,,,-99.99,,2013-02-08 00:21:00,
2013-02-07 19:31:00,37.0,29.0,29.90,North,357,0.0,-999.0,73,-99.99,,,-99.99,,2013-02-08 00:31:00,
2013-02-07 19:42:00,37.0,29.0,29.90,North,357,0.0,-999.0,73,-99.99,,,-99.99,,2013-02-08 00:42:00,
2013-02-07 19:52:00,37.0,30.0,29.90,North,357,0.0,-999.0,77,-99.99,,,-99.99,,2013-02-08 00:52:00,
2013-02-07 20:01:00,36.0,30.0,29.90,North,357,0.0,-999.0,79,-99.99,,,-99.99,,2013-02-08 01:01:00,
2013-02-07 20:11:00,36.0,30.0,29.90,North,357,0.0,-999.0,79,-99.99,,,-99.99,,2013-02-08 01:11:00,
2013-02-07 20:21:00,36.0,31.0,29.90,North,357,0.0,-999.0,82,-99.99,,,-99.99,,2013-02-08 01:21:00,
2013-02-07 20:31:00,36.0,32.0,29.90,North,357,0.0,-999.0,84,-99.99,,,-99.99,,2013-02-08 01:31:00,
2013-02-07 20:41:00,36.0,32.0,29.90,North,357,0.0,-999.0,84,-99.99,,,-99.99,,2013-02-08 01:41:00,
2013-02-07 20:52:00,35.0,31.0,29.91,North,357,0.0,-999.0,86,-99.99,,,-99.99,,2013-02-08 01:52:00,
2013-02-07 21:01:00,35.0,31.0,29.91,NW,322,0.0,-999.0,86,-99.99,,,-99.99,,2013-02-08 02:01:00,
2013-02-07 21:11:00,35.0,31.0,29.91,NW,322,0.0,-999.0,86,-99.99,,,-99.99,,2013-02-08 02:11:00,
2013-02-07 21:21:00,35.0,32.0,29.89,NW,322,0.0,-999.0,87,-99.99,,,-99.99,,2013-02-08 02:21:00,
2013-02-07 21:32:00,34.0,31.0,29.89,West,279,0.0,-999.0,87,-99.99,,,-99.99,,2013-02-08 02:32:00,
2013-02-07 21:42:00,34.0,31.0,29.89,West,279,0.0,-999.0,87,-99.99,,,-99.99,,2013-02-08 02:42:00,
2013-02-07 21:52:00,34.0,31.0,29.87,WNW,288,1.0,-999.0,88,-99.99,,,-99.99,,2013-02-08 02:52:00,
2013-02-07 22:01:00,34.0,31.0,29.87,NNW,327,1.0,-999.0,88,-99.99,,,-99.99,,2013-02-08 03:01:00,
2013-02-07 22:12:00,34.0,31.0,29.87,NNW,327,1.0,-999.0,88,-99.99,,,-99.99,,2013-02-08 03:12:00,
2013-02-07 22:22:00,34.0,31.0,29.87,WNW,285,1.0,-999.0,89,-99.99,,,-99.99,,2013-02-08 03:22:00,
2013-02-07 22:32:00,34.0,31.0,29.87,West,281,0.0,-999.0,89,-99.99,,,-99.99,,2013-02-08 03:32:00,
2013-02-07 22:41:00,34.0,31.0,29.87,West,281,0.0,-999.0,89,-99.99,,,-99.99,,2013-02-08 03:41:00,
2013-02-07 22:52:00,34.0,31.0,29.87,West,281,0.0,-999.0,89,-99.99,,,-99.99,,2013-02-08 03:52:00,
2013-02-07 23:01:00,34.0,31.0,29.87,West,281,0.0,-999.0,89,-99.99,,,-99.99,,2013-02-08 04:01:00,
2013-02-07 23:11:00,34.0,31.0,29.87,West,281,0.0,-999.0,89,-99.99,,,-99.99,,2013-02-08 04:11:00,
2013-02-07 23:21:00,34.0,31.0,29.87,West,281,0.0,-999.0,90,-99.99,,,-99.99,,2013-02-08 04:21:00,
2013-02-07 23:32:00,34.0,31.0,29.87,West,281,0.0,-999.0,90,-99.99,,,-99.99,,2013-02-08 04:32:00,
2013-02-07 23:41:00,34.0,31.0,29.87,West,281,0.0,-999.0,90,-99.99,,,-99.99,,2013-02-08 04:41:00,
2013-02-07 23:52:00,34.0,31.0,29.87,West,281,0.0,-999.0,90,-99.99,,,-99.99,,2013-02-08 04:52:00,